CDT,Max TemperatureF,Mean TemperatureF,Min TemperatureF,Max Dew PointF,MeanDew PointF,Min DewpointF,Max Humidity, Mean Humidity, Min Humidity, Max Sea Level PressureIn, Mean Sea Level PressureIn, Min Sea Level PressureIn, Max VisibilityMiles, Mean VisibilityMiles, Min VisibilityMiles, Max Wind SpeedMPH, Mean Wind SpeedMPH, Max Gust SpeedMPH,PrecipitationIn, CloudCover, Events, WindDirDegrees
2013-7-1,78,68,59,62,60,57,100,79,54,30.02,29.99,29.95,10,10,10,16,7,21,0.01,2,,330
2013-7-2,77,66,56,59,57,54,95,74,48,30.09,30.04,29.99,10,10,10,12,6,17,0.00,1,,347
2013-7-3,81,68,54,65,59,55,100,73,43,30.11,30.06,30.02,10,10,10,7,3,,0.00,0,,202
2013-7-4,83,71,59,66,61,55,100,69,39,30.10,30.05,29.97,10,10,10,7,5,,0.00,0,,149
2013-7-5,84,71,60,68,63,60,100,74,47,30.07,30.03,29.98,10,10,10,9,5,,0.00,1,,141
2013-7-6,88,76,64,68,66,64,100,77,45,30.04,30.00,29.97,10,10,6,12,7,,0.00,1,,149
2013-7-7,90,77,65,72,68,64,100,73,41,30.06,30.03,30.00,10,10,10,12,7,17,0.00,0,,163
2013-7-8,92,82,72,74,71,67,87,73,48,30.11,30.06,30.04,10,10,8,8,5,,0.00,2,,177
2013-7-9,93,83,73,78,73,69,90,70,50,30.07,30.02,29.94,10,10,10,8,5,,0.00,2,,187
2013-7-10,88,78,69,77,73,70,100,89,65,30.04,30.00,29.94,10,9,0,10,5,21,0.50,5,Fog-Rain-Thunderstorm,274
2013-7-11,84,75,67,74,66,63,100,75,50,30.06,30.03,29.99,10,10,3,9,5,,0.00,0,,47
2013-7-12,85,72,59,62,60,55,99,65,35,30.12,30.06,30.02,10,10,10,10,6,,0.00,0,,99
2013-7-13,82,70,57,68,61,57,99,72,52,30.08,30.05,30.01,10,10,10,8,6,,0.00,2,,100
2013-7-14,88,77,67,67,63,62,83,59,44,30.09,30.07,30.05,10,10,10,9,7,,0.00,1,,126
2013-7-15,87,76,68,75,71,67,100,85,59,30.23,30.19,30.12,10,9,1,20,6,29,0.66,5,Rain-Thunderstorm,131
2013-7-16,88,78,69,75,72,69,100,89,59,30.31,30.26,30.21,10,8,1,9,5,,0.00,3,,138
2013-7-17,92,80,70,73,72,68,100,74,45,30.34,30.27,30.20,10,10,10,6,3,,0.00,1,,123
2013-7-18,94,82,70,74,71,68,100,71,43,30.22,30.14,30.04,10,10,10,13,4,16,0.00,0,,162
2013-7-19,94,82,72,72,71,68,91,74,42,30.03,29.98,29.91,10,10,10,16,5,25,0.00,0,,194
2013-7-20,93,82,70,73,71,68,91,78,51,29.98,29.91,29.87,10,10,10,15,6,21,0.00,2,,239
2013-7-21,82,74,68,74,71,69,100,89,72,29.97,29.91,29.86,10,10,10,8,5,,0.01,5,Rain,163
2013-7-22,89,78,67,74,71,67,100,80,54,29.89,29.86,29.81,10,10,9,9,3,,0.00,2,,211
2013-7-23,91,79,67,79,71,66,100,91,62,29.94,29.87,29.81,10,7,1,21,6,31,1.28,5,Rain-Thunderstorm,204
2013-7-24,82,74,66,69,65,61,100,79,51,30.03,29.97,29.89,10,10,10,9,4,,0.00,2,,14
2013-7-25,81,69,57,66,61,57,100,77,50,30.12,30.08,30.03,10,9,1,7,2,,0.00,2,,129
2013-7-26,72,68,64,72,68,63,100,96,80,30.09,30.05,29.99,10,8,0,8,4,,0.39,6,Fog-Rain,207
2013-7-27,75,66,57,66,62,56,100,88,51,30.06,30.01,29.98,10,8,1,10,4,,0.01,3,,313
2013-7-28,73,63,54,65,60,55,100,84,62,30.09,30.05,30.00,10,10,10,8,3,,0.00,5,,210
2013-7-29,76,70,63,68,65,63,100,87,75,30.15,30.11,30.07,10,10,10,14,6,,0.00,4,Rain,140
2013-7-30,81,74,66,77,72,64,100,97,83,30.08,30.04,29.99,10,8,0,13,8,,1.12,7,Fog-Rain,165
2013-7-31,83,76,67,75,73,67,100,95,67,30.09,30.05,30.01,10,6,0,13,3,,0.12,6,Fog-Rain,310